Weather History for Wauseon Fulton County Airport, OH

Change the Weather History Date:

Monday, August 4, 2014

  Actual Average (KTOL) Record (KTOL)
Temperature  
Mean Temperature 70 °F 73 °F  
Max Temperature 84 °F 83 °F 96 °F (1944)
Min Temperature 55 °F 62 °F 44 °F (1978)
Degree Days  
Heating Degree Days 0 0  
Month to date heating degree days 0  
Since 1 June heating degree days 38  
Since 1 July heating degree days 3  
Cooling Degree Days 4 8  
Month to date cooling degree days 32  
Year to date cooling degree days 520  
Since 1 June cooling degree days 467  
Growing Degree Days 20 (Base 50)    
Moisture  
Dew Point 62 °F    
Average Humidity 81    
Maximum Humidity 100    
Minimum Humidity 51    
Precipitation  
Precipitation 0.00 in 0.11 in 0.70 in (2012)
Month to date precipitation 0.44  
Year to date precipitation 20.61  
Snow  
Snow 0.00 in 0.00 in - ()
Month to date snowfall 0.0  
Since 1 June snowfall 0.0  
Since 1 July snowfall 0.0  
Snow Depth -    
Sea Level Pressure  
Sea Level Pressure 30.09 in    
Wind  
Wind Speed 2 mph (South)    
Max Wind Speed 13 mph    
Max Gust Speed 18 mph    
Visibility 9 miles    
Events Rain    
T = Trace of Precipitation, MM = Missing Value Source: NWS Daily Summary

Daily Weather History Graph

Daily Weather History Graph

Search for Another Location

Airport:

Trip Planner

Search our weather history database for the weather conditions in past years. The results will help you decide how hot, cold, wet, or windy it might be!

Date:

Astronomy

Aug. 04, 2014 Rise Set
Actual Time 6:33 AM EDT 8:50 PM EDT
Civil Twilight 6:02 AM EDT 9:21 PM EDT
Nautical Twilight 5:24 AM EDT 9:59 PM EDT
Astronomical Twilight 4:42 AM EDT 10:41 PM EDT
Moon 3:01 PM EDT (8/4) 12:40 AM EDT (8/4)
Length of Visible Light 15h 18m
Length of Day
14h 16m
First Quarter, 57% of the Moon is Illuminated
Aug 4
First Quarter
Aug 10
Full
Aug 17
Last Quarter
Aug 25
New
Sep 2
First Quarter

Hourly Weather History & Observations

Time (EDT) Temp. Heat Index Dew Point Humidity Pressure Visibility Wind Dir Wind Speed Gust Speed Precip Events Conditions
12:15 AM 60.8 °F - 57.2 °F 88% 30.10 in 10.0 mi Calm Calm - N/A   Clear
12:35 AM 59.0 °F - 57.2 °F 94% 30.10 in 10.0 mi Calm Calm - N/A   Clear
1:15 AM 60.8 °F - 57.2 °F 88% 30.10 in 10.0 mi Calm Calm - N/A   Clear
1:35 AM 57.2 °F - 55.4 °F 94% 30.10 in 10.0 mi Calm Calm - N/A   Clear
1:55 AM 59.0 °F - 57.2 °F 94% 30.11 in 10.0 mi Calm Calm - N/A   Clear
2:15 AM 59.0 °F - 57.2 °F 94% 30.11 in 10.0 mi Calm Calm - N/A   Clear
2:35 AM 59.0 °F - 57.2 °F 94% 30.10 in 9.0 mi Calm Calm - N/A   Clear
2:55 AM 59.0 °F - 57.2 °F 94% 30.10 in 10.0 mi SSW 5.8 mph - N/A   Clear
3:15 AM 57.2 °F - 55.4 °F 94% 30.10 in 10.0 mi Calm Calm - N/A   Clear
3:35 AM 57.2 °F - 55.4 °F 94% 30.10 in 10.0 mi NW 3.5 mph - N/A   Clear
3:55 AM 57.2 °F - 55.4 °F 94% 30.10 in 10.0 mi Calm Calm - N/A   Partly Cloudy
4:15 AM 57.2 °F - 55.4 °F 94% 30.10 in 10.0 mi Calm Calm - N/A   Clear
4:35 AM 57.2 °F - 55.4 °F 94% 30.10 in 10.0 mi Calm Calm - N/A   Scattered Clouds
4:55 AM 57.2 °F - 55.4 °F 94% 30.10 in 10.0 mi Calm Calm - N/A   Partly Cloudy
5:15 AM 57.2 °F - 55.4 °F 94% 30.09 in 10.0 mi Calm Calm - N/A   Clear
5:35 AM 57.2 °F - 55.4 °F 94% 30.09 in 10.0 mi WNW 3.5 mph - N/A   Clear
5:55 AM 57.2 °F - 53.6 °F 88% 30.09 in 10.0 mi Calm Calm - N/A   Clear
6:15 AM 55.4 °F - 53.6 °F 94% 30.09 in 10.0 mi Calm Calm - N/A   Clear
6:35 AM 55.4 °F - 53.6 °F 94% 30.09 in 9.0 mi Calm Calm - N/A   Clear
6:55 AM 57.2 °F - 53.6 °F 88% 30.10 in 8.0 mi Calm Calm - N/A   Clear
7:15 AM 57.2 °F - 55.4 °F 94% 30.10 in 9.0 mi SSE 4.6 mph - N/A   Clear
7:35 AM 59.0 °F - 57.2 °F 94% 30.11 in 9.0 mi Calm Calm - N/A   Clear
7:55 AM 60.8 °F - 59.0 °F 94% 30.12 in 9.0 mi Calm Calm - N/A   Clear
8:15 AM 64.4 °F - 59.0 °F 83% 30.12 in 8.0 mi Calm Calm - N/A   Clear
8:35 AM 64.4 °F - 60.8 °F 88% 30.12 in 9.0 mi Calm Calm - N/A   Clear
8:55 AM 66.2 °F - 62.6 °F 88% 30.12 in 8.0 mi Calm Calm - N/A   Clear
9:15 AM 68.0 °F - 62.6 °F 83% 30.13 in 9.0 mi Calm Calm - N/A   Clear
9:35 AM 71.6 °F - 64.4 °F 78% 30.13 in 9.0 mi Calm Calm - N/A   Clear
9:55 AM 73.4 °F - 64.4 °F 73% 30.13 in 9.0 mi WSW 3.5 mph - N/A   Clear
10:15 AM 75.2 °F - 64.4 °F 69% 30.13 in 9.0 mi Calm Calm - N/A   Clear
10:35 AM 77.0 °F - 64.4 °F 65% 30.12 in 10.0 mi Calm Calm - N/A   Clear
10:55 AM 78.8 °F - 64.4 °F 61% 30.13 in 9.0 mi Calm Calm - N/A   Clear
11:15 AM 78.8 °F - 64.4 °F 61% 30.13 in 9.0 mi Calm Calm - N/A   Clear
11:55 AM 80.6 °F 81.8 °F 62.6 °F 54% 30.12 in 10.0 mi Calm Calm - N/A   Clear
12:15 PM 82.4 °F 83.4 °F 62.6 °F 51% 30.12 in 10.0 mi Variable 4.6 mph - N/A   Clear
12:35 PM 82.4 °F 83.9 °F 64.4 °F 54% 30.12 in 9.0 mi Calm Calm - N/A   Clear
12:55 PM 82.4 °F 83.9 °F 64.4 °F 54% 30.11 in 10.0 mi WSW 5.8 mph - N/A   Clear
1:15 PM 84.2 °F 85.6 °F 64.4 °F 51% 30.11 in 10.0 mi SSE 4.6 mph 12.7 mph N/A   Partly Cloudy
1:35 PM 82.4 °F 83.9 °F 64.4 °F 54% 30.10 in 9.0 mi Calm Calm - N/A   Scattered Clouds
1:55 PM 77.0 °F - 62.6 °F 61% 30.10 in 9.0 mi Variable 4.6 mph 13.8 mph N/A   Light Drizzle
2:15 PM 73.4 °F - 62.6 °F 69% 30.11 in 9.0 mi ESE 12.7 mph - N/A   Clear
2:35 PM 69.8 °F - 64.4 °F 83% 30.10 in 9.0 mi SE 9.2 mph 17.3 mph N/A   Mostly Cloudy
2:55 PM 73.4 °F - 66.2 °F 78% 30.09 in 9.0 mi ESE 9.2 mph 15.0 mph N/A   Mostly Cloudy
3:15 PM 75.2 °F - 66.2 °F 73% 30.08 in 10.0 mi ESE 8.1 mph 15.0 mph N/A   Clear
3:35 PM 77.0 °F - 66.2 °F 69% 30.07 in 10.0 mi SE 6.9 mph - N/A   Clear
3:55 PM 78.8 °F - 64.4 °F 61% 30.07 in 10.0 mi SSE 6.9 mph - N/A   Scattered Clouds
4:15 PM 78.8 °F - 66.2 °F 65% 30.06 in 10.0 mi SSE 4.6 mph - N/A   Scattered Clouds
4:35 PM 78.8 °F - 64.4 °F 61% 30.06 in 10.0 mi South 10.4 mph 17.3 mph N/A   Scattered Clouds
4:55 PM 77.0 °F - 64.4 °F 65% 30.06 in 10.0 mi South 8.1 mph - N/A   Mostly Cloudy
5:15 PM 73.4 °F - 66.2 °F 78% 30.08 in 6.0 mi SW 11.5 mph 18.4 mph N/A Rain Light Rain
5:35 PM 73.4 °F - 66.2 °F 78% 30.07 in 10.0 mi South 3.5 mph - N/A   Scattered Clouds
5:55 PM 77.0 °F - 62.6 °F 61% 30.07 in 10.0 mi Variable 4.6 mph - N/A   Mostly Cloudy
6:15 PM 77.0 °F - 62.6 °F 61% 30.07 in 10.0 mi SW 4.6 mph - N/A   Partly Cloudy
6:35 PM 78.8 °F - 64.4 °F 61% 30.07 in 10.0 mi SSW 4.6 mph - N/A   Clear
6:55 PM 78.8 °F - 64.4 °F 61% 30.07 in 10.0 mi Calm Calm - N/A   Clear
7:15 PM 78.8 °F - 64.4 °F 61% 30.07 in 10.0 mi Calm Calm - N/A   Clear
7:35 PM 75.2 °F - 68.0 °F 78% 30.07 in 10.0 mi Calm Calm - N/A   Clear
7:55 PM 75.2 °F - 68.0 °F 78% 30.07 in 10.0 mi Calm Calm - N/A   Clear
8:15 PM 73.4 °F - 69.8 °F 88% 30.07 in 10.0 mi Calm Calm - N/A   Scattered Clouds
8:35 PM 71.6 °F - 68.0 °F 88% 30.07 in 10.0 mi Calm Calm - N/A   Partly Cloudy
8:55 PM 69.8 °F - 68.0 °F 94% 30.07 in 9.0 mi Calm Calm - N/A   Clear
9:15 PM 68.0 °F - 68.0 °F 100% 30.07 in 10.0 mi Calm Calm - N/A   Clear
9:35 PM 68.0 °F - 66.2 °F 94% 30.07 in 8.0 mi Calm Calm - N/A   Clear
9:55 PM 66.2 °F - 66.2 °F 100% 30.07 in 8.0 mi Calm Calm - N/A   Clear
10:15 PM 64.4 °F - 64.4 °F 100% 30.08 in 7.0 mi Calm Calm - N/A   Clear
10:35 PM 64.4 °F - 64.4 °F 100% 30.08 in 8.0 mi Calm Calm - N/A   Clear
10:55 PM 64.4 °F - 64.4 °F 100% 30.08 in 7.0 mi Calm Calm - N/A   Clear
11:15 PM 64.4 °F - 62.6 °F 94% 30.07 in 2.5 mi Calm Calm - N/A   Clear
11:35 PM 64.4 °F - 64.4 °F 100% 30.07 in 5.0 mi SSW 4.6 mph - N/A   Clear
11:55 PM 62.6 °F - 62.6 °F 100% 30.08 in 5.0 mi Calm Calm - N/A   Clear